Location: McFarlands Corners
(41.4117°N, 81.3382°W)
Time: 02:53:15
(UTC+00:00)

Transit 4A - Pass Details

Date: 20 February 2026
Orbit: 864 x 977 km, 66.8° (Epoch: 7 March)

Event Time Altitude Azimuth Distance (km) Brightness Sun altitude
Rises 18:22:41 0° 322° (NW) 3,624 10.7 36.9°
Reaches altitude 10° 18:25:23 10° 315° (NW) 2,690 10.2 36.8°
Maximum altitude 18:31:05 37° 250° (WSW) 1,453 9.8 36.5°
Drops below altitude 10° 18:36:50 10° 185° (S) 2,714 11.6 36.2°
Sets 18:39:35 0° 177° (S) 3,659 11.9 36.0°
